Weather History for KMMU - August, 2013

Change the Weather History Date:

Sunday, August 25, 2013

  Actual Average Record
Temperature  
Mean Temperature 66 °F -  
Max Temperature 80 °F 80 °F 94 °F (1947)
Min Temperature 51 °F 58 °F 36 °F (1940)
Growing Degree Days 16 (Base 50)    
Moisture  
Dew Point 54 °F    
Average Humidity 78    
Maximum Humidity 94    
Minimum Humidity 37    
Precipitation  
Precipitation 0.00 in - - ()
Sea Level Pressure  
Sea Level Pressure 30.33 in    
Wind  
Wind Speed 1 mph (WSW)    
Max Wind Speed 12 mph    
Max Gust Speed -    
Visibility 7 miles    
Events Fog    
Averages and records for this station are not official NWS values.
T = Trace of Precipitation, MM = Missing Value Source: NWS Daily Summary

Daily Weather History Graph

Daily Weather History Graph

Search for Another Location

Airport or City:

Trip Planner

Search our weather history database for the weather conditions in past years. The results will help you decide how hot, cold, wet, or windy it might be!

Date:

Astronomy

Aug. 25, 2013 Rise Set
Actual Time 6:17 AM EDT 7:40 PM EDT
Civil Twilight 5:49 AM EDT 8:09 PM EDT
Nautical Twilight 5:14 AM EDT 8:43 PM EDT
Astronomical Twilight 4:38 AM EDT 9:19 PM EDT
Moon 10:07 PM EDT (8/25) 11:19 AM EDT (8/25)
Length of Visible Light 14h 19m
Length of Day
13h 22m
Waning Gibbous, 76% of the Moon is Illuminated
Aug 25
Waning Gibbous
Aug 28
Last Quarter
Sep 5
New
Sep 12
First Quarter
Sep 19
Full

Hourly Weather History & Observations

Time (EDT) Temp. Dew Point Humidity Pressure Visibility Wind Dir Wind Speed Gust Speed Precip Events Conditions
12:15 AM 57.2 °F 53.6 °F 88% 30.36 in 7.0 mi Calm Calm - N/A   Clear
12:35 AM 57.2 °F 53.6 °F 88% 30.36 in 2.0 mi Calm Calm - N/A   Clear
12:55 AM 57.2 °F 53.6 °F 88% 30.36 in 2.5 mi Calm Calm - N/A   Clear
1:15 AM 57.2 °F 53.6 °F 88% 30.34 in 10.0 mi Calm Calm - N/A   Clear
1:35 AM 53.6 °F 51.8 °F 94% 30.34 in 3.0 mi Calm Calm - N/A   Clear
1:55 AM 55.4 °F 51.8 °F 88% 30.34 in 0.5 mi Calm Calm - N/A Fog Fog
2:15 AM 55.4 °F 53.6 °F 94% 30.35 in 0.8 mi Calm Calm - N/A   Mostly Cloudy
2:35 AM 55.4 °F 51.8 °F 88% 30.34 in 0.8 mi Calm Calm - N/A   Mostly Cloudy
2:55 AM 53.6 °F 51.8 °F 94% 30.34 in 2.0 mi Calm Calm - N/A   Clear
3:15 AM 55.4 °F 51.8 °F 88% 30.34 in 3.0 mi Calm Calm - N/A   Scattered Clouds
3:35 AM 53.6 °F 51.8 °F 94% 30.34 in 7.0 mi Calm Calm - N/A   Clear
3:55 AM 53.6 °F 51.8 °F 94% 30.36 in 10.0 mi Calm Calm - N/A   Clear
4:15 AM 53.6 °F 51.8 °F 94% 30.36 in 0.8 mi Calm Calm - N/A   Mostly Cloudy
4:35 AM 53.6 °F 51.8 °F 94% 30.36 in 7.0 mi Calm Calm - N/A   Scattered Clouds
4:55 AM 53.6 °F 51.8 °F 94% 30.37 in 3.0 mi Calm Calm - N/A   Scattered Clouds
5:15 AM 53.6 °F 51.8 °F 94% 30.37 in 10.0 mi Calm Calm - N/A   Scattered Clouds
5:35 AM 53.6 °F 50.0 °F 88% 30.38 in 10.0 mi Calm Calm - N/A   Clear
5:55 AM 51.8 °F 50.0 °F 94% 30.38 in 7.0 mi Calm Calm - N/A   Clear
6:15 AM 51.8 °F 50.0 °F 94% 30.38 in 1.5 mi Calm Calm - N/A   Scattered Clouds
6:35 AM 53.6 °F 50.0 °F 88% 30.39 in 10.0 mi Calm Calm - N/A   Scattered Clouds
6:45 AM 51.8 °F 50.0 °F 94% 30.40 in 10.0 mi Calm Calm - N/A   Scattered Clouds
7:45 AM 57.2 °F 55.4 °F 94% 30.42 in 10.0 mi Calm Calm - N/A   Scattered Clouds
8:45 AM 64.4 °F 59.0 °F 83% 30.42 in 10.0 mi Calm Calm - N/A   Scattered Clouds
9:45 AM 71.6 °F 60.8 °F 69% 30.14 in 10.0 mi Calm Calm - N/A   Scattered Clouds
10:45 AM 75.2 °F 59.0 °F 57% 30.40 in 10.0 mi South 5.8 mph - N/A   Partly Cloudy
11:45 AM 77.0 °F 51.8 °F 41% 30.38 in 10.0 mi SSW 4.6 mph - N/A   Partly Cloudy
12:45 PM 78.8 °F 55.4 °F 44% 30.36 in 10.0 mi SW 10.4 mph - N/A   Partly Cloudy
1:45 PM 78.8 °F 51.8 °F 39% 30.35 in 10.0 mi WSW 8.1 mph - N/A   Partly Cloudy
2:45 PM 78.8 °F 53.6 °F 42% 30.33 in 10.0 mi SW 11.5 mph - N/A   Partly Cloudy
3:45 PM 78.8 °F 55.4 °F 44% 30.31 in 10.0 mi West 8.1 mph - N/A   Partly Cloudy
4:45 PM 80.6 °F 51.8 °F 37% 30.30 in 10.0 mi WSW 10.4 mph - N/A   Partly Cloudy
5:45 PM 78.8 °F 55.4 °F 44% 30.28 in 10.0 mi West 6.9 mph - N/A   Partly Cloudy
6:45 PM 77.0 °F 51.8 °F 41% 30.26 in 10.0 mi West 8.1 mph - N/A   Scattered Clouds
7:45 PM 68.0 °F 57.2 °F 68% 30.26 in 10.0 mi West 3.5 mph - N/A   Scattered Clouds
8:45 PM 64.4 °F 57.2 °F 77% 30.26 in 10.0 mi Calm Calm - N/A   Scattered Clouds
9:45 PM 59.0 °F 57.2 °F 94% 30.26 in 10.0 mi Calm Calm - N/A   Clear
10:55 PM 62.6 °F 57.2 °F 82% 30.25 in 10.0 mi Calm Calm - N/A   Clear
11:15 PM 62.6 °F 57.2 °F 82% 30.25 in 10.0 mi Calm Calm - N/A   Clear
11:35 PM 62.6 °F 57.2 °F 82% 30.25 in 10.0 mi Calm Calm - N/A   Clear
11:55 PM 66.2 °F 57.2 °F 73% 30.25 in 10.0 mi WSW 5.8 mph - N/A   Clear